When you browse on this site, cookies collect data to enhance your experience and personalize the content and advertising you see.
Visit our Privacy Policy to learn more. By continuing to use the site, you agree to this use of cookies and data.
  • In Hungary
  • List of Countries
  • For 7 days
  • Water Temperature
  • Weather Map
  • News
  • Weather Widgets
  • user-avatar
    Login

    Hourly Weather Dhone

    Today, 18 August, Sunday

    Time Temperature Precipitation Wind Pressure Humidity
    00:00 +29°C° 0.1 mm 4 mps 721 mmHg 65%
    01:00 +29°C° 0.1 mm 5 mps 721 mmHg 67%
    02:00 +29°C° 0.1 mm 6 mps 720 mmHg 68%
    03:00 +28°C° 0 mm 6 mps 720 mmHg 70%
    04:00 +28°C° 0 mm 5 mps 720 mmHg 72%
    05:00 +27°C° 0 mm 5 mps 720 mmHg 74%
    06:00 +28°C° 0 mm 5 mps 721 mmHg 72%
    07:00 +29°C° 0 mm 6 mps 721 mmHg 69%
    08:00 +29°C° 0 mm 6 mps 722 mmHg 66%
    09:00 +30°C° 0 mm 6 mps 722 mmHg 61%
    10:00 +33°C° 0 mm 6 mps 722 mmHg 57%
    11:00 +34°C° 0 mm 6 mps 722 mmHg 52%
    12:00 +34°C° 0 mm 7 mps 721 mmHg 51%
    13:00 +34°C° 0 mm 7 mps 721 mmHg 50%
    14:00 +35°C° 0 mm 7 mps 720 mmHg 49%
    15:00 +34°C° 0 mm 6 mps 720 mmHg 50%
    16:00 +34°C° 0 mm 6 mps 720 mmHg 52%
    17:00 +33°C° 0 mm 6 mps 720 mmHg 53%
    18:00 +33°C° 0 mm 5 mps 720 mmHg 56%
    19:00 +32°C° 0 mm 4 mps 721 mmHg 59%
    20:00 +31°C° 0 mm 3 mps 721 mmHg 61%
    21:00 +30°C° 0.3 mm 3 mps 721 mmHg 63%
    22:00 +30°C° 0.3 mm 3 mps 722 mmHg 65%
    23:00 +30°C° 0.3 mm 3 mps 722 mmHg 66%

    Tomorrow, 19 August, Monday

    Time Temperature Precipitation Wind Pressure Humidity
    00:00 +29°C° 1.3 mm 5 mps 721 mmHg 68%
    01:00 +28°C° 1.3 mm 6 mps 721 mmHg 70%
    02:00 +28°C° 1.3 mm 7 mps 721 mmHg 72%
    03:00 +27°C° 1 mm 7 mps 721 mmHg 74%
    04:00 +27°C° 1 mm 6 mps 721 mmHg 76%
    05:00 +26°C° 1 mm 5 mps 721 mmHg 78%
    06:00 +27°C° 0.8 mm 5 mps 721 mmHg 77%
    07:00 +27°C° 0.8 mm 4 mps 722 mmHg 76%
    08:00 +27°C° 0.8 mm 4 mps 722 mmHg 75%
    09:00 +28°C° 0.1 mm 4 mps 722 mmHg 74%
    10:00 +28°C° 0.1 mm 4 mps 722 mmHg 72%
    11:00 +28°C° 0.1 mm 4 mps 722 mmHg 71%
    12:00 +29°C° 0 mm 4 mps 722 mmHg 70%
    13:00 +29°C° 0 mm 3 mps 721 mmHg 69%
    14:00 +30°C° 0 mm 3 mps 720 mmHg 67%
    15:00 +30°C° 0 mm 3 mps 720 mmHg 66%
    16:00 +30°C° 0 mm 3 mps 720 mmHg 65%
    17:00 +31°C° 0 mm 2 mps 719 mmHg 64%
    18:00 +30°C° 0.1 mm 2 mps 720 mmHg 66%
    19:00 +30°C° 0.1 mm 2 mps 720 mmHg 69%
    20:00 +29°C° 0.1 mm 2 mps 721 mmHg 71%
    21:00 +29°C° 0.7 mm 3 mps 721 mmHg 72%
    22:00 +28°C° 0.7 mm 4 mps 721 mmHg 73%
    23:00 +28°C° 0.7 mm 5 mps 721 mmHg 74%

    Day after tomorrow, 20 August, Tuesday

    Time Temperature Precipitation Wind Pressure Humidity
    00:00 +28°C° 0 mm 5 mps 721 mmHg 75%
    01:00 +28°C° 0 mm 5 mps 721 mmHg 77%
    02:00 +27°C° 0 mm 5 mps 720 mmHg 78%
    03:00 +27°C° 0.1 mm 6 mps 720 mmHg 79%
    04:00 +27°C° 0.1 mm 6 mps 720 mmHg 80%
    05:00 +27°C° 0.1 mm 6 mps 720 mmHg 80%
    06:00 +27°C° 0.5 mm 6 mps 721 mmHg 78%
    07:00 +27°C° 0.5 mm 6 mps 722 mmHg 76%
    08:00 +28°C° 0.5 mm 7 mps 722 mmHg 73%
    09:00 +29°C° 0 mm 7 mps 722 mmHg 69%
    10:00 +30°C° 0 mm 7 mps 722 mmHg 65%
    11:00 +32°C° 0 mm 7 mps 722 mmHg 61%
    12:00 +33°C° 0 mm 7 mps 721 mmHg 59%
    13:00 +33°C° 0 mm 7 mps 720 mmHg 57%
    14:00 +33°C° 0 mm 7 mps 720 mmHg 56%
    15:00 +33°C° 0 mm 6 mps 719 mmHg 55%
    16:00 +33°C° 0 mm 6 mps 719 mmHg 55%
    17:00 +33°C° 0 mm 6 mps 719 mmHg 55%
    18:00 +32°C° 0 mm 5 mps 720 mmHg 58%
    19:00 +32°C° 0 mm 4 mps 720 mmHg 60%
    20:00 +30°C° 0 mm 3 mps 721 mmHg 63%
    21:00 +30°C° 0 mm 4 mps 721 mmHg 65%
    22:00 +29°C° 0 mm 5 mps 721 mmHg 68%
    23:00 +28°C° 0 mm 6 mps 721 mmHg 70%

    21 August, Wednesday

    Time Temperature Precipitation Wind Pressure Humidity
    00:00 +28°C° 0 mm 6 mps 721 mmHg 72%
    01:00 +28°C° 0 mm 7 mps 720 mmHg 74%
    02:00 +27°C° 0 mm 7 mps 720 mmHg 76%
    03:00 +27°C° 0 mm 7 mps 720 mmHg 77%
    04:00 +27°C° 0 mm 7 mps 720 mmHg 77%
    05:00 +26°C° 0 mm 7 mps 720 mmHg 78%
    06:00 +27°C° 0 mm 7 mps 720 mmHg 75%
    07:00 +27°C° 0 mm 7 mps 721 mmHg 73%
    08:00 +28°C° 0 mm 8 mps 721 mmHg 71%
    09:00 +29°C° 0 mm 8 mps 721 mmHg 66%
    10:00 +31°C° 0 mm 8 mps 721 mmHg 62%
    11:00 +32°C° 0 mm 8 mps 721 mmHg 57%
    12:00 +33°C° 0 mm 8 mps 720 mmHg 54%
    13:00 +34°C° 0 mm 8 mps 720 mmHg 51%
    14:00 +35°C° 0 mm 8 mps 719 mmHg 48%
    15:00 +34°C° 0.1 mm 7 mps 719 mmHg 50%
    16:00 +34°C° 0.1 mm 7 mps 719 mmHg 51%
    17:00 +33°C° 0.1 mm 7 mps 719 mmHg 53%
    18:00 +32°C° 1.2 mm 6 mps 719 mmHg 58%
    19:00 +30°C° 1.2 mm 6 mps 720 mmHg 63%
    20:00 +29°C° 1.2 mm 6 mps 720 mmHg 68%
    21:00 +28°C° 0.5 mm 7 mps 721 mmHg 71%
    22:00 +28°C° 0.5 mm 7 mps 721 mmHg 73%
    23:00 +27°C° 0.5 mm 8 mps 721 mmHg 76%

    22 August, Thursday

    Time Temperature Precipitation Wind Pressure Humidity
    00:00 +27°C° 0 mm 8 mps 720 mmHg 76%
    01:00 +27°C° 0 mm 8 mps 720 mmHg 77%
    02:00 +26°C° 0 mm 8 mps 719 mmHg 77%
    03:00 +26°C° 0 mm 7 mps 720 mmHg 78%
    04:00 +26°C° 0 mm 7 mps 720 mmHg 79%
    05:00 +24°C° 0 mm 6 mps 720 mmHg 80%
    06:00 +26°C° 0 mm 7 mps 720 mmHg 76%
    07:00 +27°C° 0 mm 8 mps 721 mmHg 73%
    08:00 +28°C° 0 mm 8 mps 721 mmHg 69%
    09:00 +29°C° 0 mm 8 mps 721 mmHg 65%
    10:00 +31°C° 0 mm 8 mps 721 mmHg 60%
    11:00 +32°C° 0 mm 8 mps 721 mmHg 55%
    12:00 +33°C° 0 mm 8 mps 720 mmHg 53%
    13:00 +34°C° 0 mm 8 mps 719 mmHg 51%
    14:00 +34°C° 0 mm 8 mps 718 mmHg 49%
    15:00 +34°C° 0 mm 7 mps 718 mmHg 49%
    16:00 +34°C° 0 mm 7 mps 718 mmHg 50%
    17:00 +34°C° 0 mm 6 mps 718 mmHg 50%
    18:00 +33°C° 0.2 mm 6 mps 719 mmHg 54%
    19:00 +32°C° 0.2 mm 6 mps 719 mmHg 58%
    20:00 +30°C° 0.2 mm 6 mps 720 mmHg 61%
    21:00 +29°C° 0 mm 6 mps 720 mmHg 64%
    22:00 +28°C° 0 mm 7 mps 720 mmHg 67%
    23:00 +28°C° 0 mm 8 mps 720 mmHg 69%

    23 August, Friday

    Time Temperature Precipitation Wind Pressure Humidity
    00:00 +27°C° 0 mm 8 mps 720 mmHg 71%
    01:00 +27°C° 0 mm 8 mps 719 mmHg 73%
    02:00 +26°C° 0 mm 8 mps 719 mmHg 75%
    03:00 +26°C° 0 mm 7 mps 719 mmHg 76%
    04:00 +26°C° 0 mm 7 mps 719 mmHg 76%
    05:00 +26°C° 0 mm 7 mps 719 mmHg 77%
    06:00 +26°C° 0 mm 7 mps 720 mmHg 74%
    07:00 +27°C° 0 mm 8 mps 720 mmHg 71%
    08:00 +28°C° 0 mm 8 mps 721 mmHg 68%
    09:00 +29°C° 0 mm 8 mps 721 mmHg 64%
    10:00 +30°C° 0 mm 7 mps 721 mmHg 59%
    11:00 +33°C° 0 mm 7 mps 721 mmHg 54%
    12:00 +33°C° 0 mm 7 mps 720 mmHg 51%
    13:00 +34°C° 0 mm 7 mps 719 mmHg 49%
    14:00 +35°C° 0 mm 7 mps 718 mmHg 46%
    15:00 +35°C° 0 mm 7 mps 718 mmHg 46%
    16:00 +35°C° 0 mm 6 mps 718 mmHg 46%
    17:00 +34°C° 0 mm 6 mps 718 mmHg 46%
    18:00 +34°C° 0 mm 5 mps 719 mmHg 50%
    19:00 +33°C° 0 mm 4 mps 719 mmHg 53%
    20:00 +31°C° 0 mm 3 mps 720 mmHg 57%
    21:00 +30°C° 0.3 mm 4 mps 720 mmHg 60%
    22:00 +29°C° 0.3 mm 6 mps 721 mmHg 64%
    23:00 +29°C° 0.3 mm 7 mps 721 mmHg 67%
    Show more